Regional Weather Roundup
Issued by NWS

Home | Current Version | Previous Version | Text Only | Print | Product List | Glossary Off
Versions: 1 2 3 4 5 6 7 8 9 10 11 12 13 14 15 16 17 18 19 20 21 22 23 24 25 26 27 28 29 30 31 32 33 34 35 36 37 38 39 40 41 42 43 44 45 46 47 48 49 50

000
ASUS43 KBIS 031810
RWRND

NORTH DAKOTA REGIONAL WEATHER ROUNDUP
NATIONAL WEATHER SERVICE BISMARCK ND
100 PM CDT WED JUN 03 2015

NOTE: "FAIR" INDICATES FEW OR NO CLOUDS BELOW 12,000 FEET WITH NO
SIGNIFICANT WEATHER AND/OR OBSTRUCTIONS TO VISIBILITY.


NDZ001>003-009>011-017-031900-
NORTHWEST NORTH DAKOTA

CITY           SKY/WX    TMP DP  RH WIND       PRES   REMARKS
WILLISTON      MOSUNNY   64  44  48 VRB3      30.04S
6HR MIN TEMP:  49; 6HR MAX TEMP:  65;

MINOT          CLOUDY    60  41  49 N13       30.02S
MINOT AFB      CLOUDY    59  46  62 NE10      30.02R
$$

NDZ018>021-031>035-040>046-031900-
SOUTHWEST NORTH DAKOTA

CITY           SKY/WX    TMP DP  RH WIND       PRES   REMARKS
BISMARCK       PTSUNNY   61  45  55 N17G24    29.98F
6HR MIN TEMP:  50; 6HR MAX TEMP:  61;

DICKINSON      SUNNY     61  45  55 N8        30.01F
GARRISON         N/A     60  44  55 N13       30.01S
6HR MIN TEMP:  49; 6HR MAX TEMP:  61;

HETTINGER ARPT MOSUNNY   61  49  64 N9G16     30.02F
$$

NDZ004>008-012>016-024-026-027-054-031900-
NORTHEAST NORTH DAKOTA

CITY           SKY/WX    TMP DP  RH WIND       PRES   REMARKS
GRAND FORKS    CLOUDY    57  51  80 N14       29.86R
GRND FRKS AFB  CLOUDY    56  48  75 N15       29.88R
DEVILS LAKE    CLOUDY    57  43  58 N20       29.93S
$$

NDZ022-023-025-028>030-036>039-047>053-031900-
SOUTHEAST NORTH DAKOTA

CITY           SKY/WX    TMP DP  RH WIND       PRES   REMARKS
FARGO          CLOUDY    58  53  84 NW15      29.84R
6HR MIN TEMP:  57; 6HR MAX TEMP:  63;

JAMESTOWN      CLOUDY    54  48  80 N17       29.91R
$$




USA.gov is the U.S. government's official web portal to all federal, state and local government web resources and services.